Location: Trois-Rivi�res
(46.3500°N, 72.5500°W)
Time: 06:03:12
(UTC-05:00)

UWE-3 - Visible Passes

Search period start: 22 November 2017 00:00
Search period end: 02 December 2017 00:00
Orbit: 585 x 685 km, 97.6° (Epoch: 21 November)

Date Brightness Start Highest point End Pass type
(mag) Time Alt. Az. Time Alt. Az. Time Alt. Az.
22 Nov ? 18:32:35 15° N 18:32:35 15° N 18:33:25 10° N visible
23 Nov ? 18:54:59 13° NNW 18:54:59 13° NNW 18:55:28 10° NNW visible
24 Nov ? 17:39:53 10° NNE 17:39:53 10° NNE 17:40:00 10° NNE visible
25 Nov ? 18:02:16 11° N 18:02:16 11° N 18:02:32 10° N visible
26 Nov ? 18:24:39 11° N 18:24:39 11° N 18:24:49 10° N visible
28 Nov ? 06:26:51 10° ENE 06:28:31 12° E 06:30:11 10° ESE visible
